N735LU EHAM-LEIB

Flight info

Callsign N735LU
Flight time 2h 17m
Altitude 39000
Route LOPIK N852 LNO DCT SUTAL DCT GTQ DCT POGOL DCT LASAT DCT MOROK DCT GILIR DCT GEVEA/N0456F410 DCT INCUS DCT BALSI DCT RETNO DCT TUPOX DCT MTG DCT DIVKO DCT VATIR N852 PIVUS Z237 SULID DCT DIMIB DCT POS
Aircraft CL60/M-SBDE1E2E3FGHIJ1J4J5J7M3RWXYZ/LB1V1D1

Departure

Time 2026-05-04 04:00
Airport Amsterdam Airport Schiphol (EHAM)

Arrival

Time 2026-05-04 06:18
Airport Ibiza Airport (LEIB)
Time Latitude Longitude Altitude Speed Heading
2026-05-04 03:35 52.31138 4.80499 -1 ft 0 kts 311°
2026-05-04 03:57 52.31141 4.80494 -1 ft 2 kts 311°
2026-05-04 03:58 52.31203 4.80541 -1 ft 8 kts 41°
2026-05-04 03:58 52.31248 4.80538 -1 ft 7 kts 285°
2026-05-04 03:58 52.31247 4.80462 -1 ft 4 kts 291°
2026-05-04 03:59 52.31280 4.80477 -1 ft 7 kts 26°
2026-05-04 03:59 52.31325 4.80419 -1 ft 9 kts 311°
2026-05-04 03:59 52.31342 4.80387 -1 ft 10 kts 311°
2026-05-04 03:59 52.31381 4.80283 -1 ft 10 kts 245°
2026-05-04 04:00 52.31209 4.80032 -1 ft 79 kts 221°
2026-05-04 04:00 52.30551 4.79088 143 ft 155 kts 220°
2026-05-04 04:00 52.29701 4.77983 1164 ft 162 kts 210°
2026-05-04 04:00 52.28560 4.77648 1968 ft 190 kts 171°
2026-05-04 04:01 52.27206 4.78122 3044 ft 208 kts 169°
2026-05-04 04:01 52.25757 4.78655 4198 ft 223 kts 168°
2026-05-04 04:01 52.24222 4.79345 5347 ft 239 kts 165°
2026-05-04 04:01 52.22539 4.80175 6256 ft 267 kts 165°
2026-05-04 04:02 52.20718 4.81085 7416 ft 281 kts 163°
2026-05-04 04:02 52.19020 4.82566 8839 ft 287 kts 143°
2026-05-04 04:02 52.17740 4.85101 10232 ft 295 kts 122°
2026-05-04 04:02 52.16752 4.88077 11435 ft 305 kts 121°
2026-05-04 04:03 52.15632 4.91103 12343 ft 321 kts 132°
2026-05-04 04:03 52.13914 4.93410 13029 ft 336 kts 152°
2026-05-04 04:03 52.11831 4.95358 13716 ft 355 kts 153°
2026-05-04 04:03 52.09667 4.97390 14574 ft 367 kts 153°
2026-05-04 04:04 52.07511 4.99418 15600 ft 372 kts 153°
2026-05-04 04:04 52.05314 5.01484 16631 ft 375 kts 153°
2026-05-04 04:04 52.03028 5.03632 17616 ft 379 kts 153°
2026-05-04 04:04 52.00710 5.05806 18532 ft 383 kts 154°
2026-05-04 04:05 51.98447 5.07928 19361 ft 388 kts 154°
2026-05-04 04:05 51.96275 5.09965 20088 ft 394 kts 154°
2026-05-04 04:05 51.93875 5.12193 20904 ft 397 kts 156°
2026-05-04 04:05 51.91329 5.13773 21670 ft 394 kts 169°
2026-05-04 04:06 51.88680 5.14934 22410 ft 398 kts 169°
2026-05-04 04:06 51.86078 5.16082 23161 ft 400 kts 169°
2026-05-04 04:06 51.83392 5.17269 23875 ft 404 kts 170°
2026-05-04 04:06 51.80752 5.18433 24553 ft 408 kts 170°
2026-05-04 04:07 51.78063 5.19620 25232 ft 411 kts 171°
2026-05-04 04:07 51.75275 5.20848 25906 ft 413 kts 171°
2026-05-04 04:07 51.72677 5.21992 26448 ft 417 kts 171°
2026-05-04 04:07 51.69936 5.23197 27005 ft 420 kts 171°
2026-05-04 04:08 51.67149 5.24421 27553 ft 423 kts 171°
2026-05-04 04:08 51.64420 5.25620 28055 ft 426 kts 171°
2026-05-04 04:08 51.61562 5.26872 28482 ft 431 kts 171°
2026-05-04 04:08 51.58654 5.28145 28949 ft 433 kts 171°
2026-05-04 04:09 51.55766 5.29408 29365 ft 437 kts 171°
2026-05-04 04:09 51.52836 5.30689 29818 ft 438 kts 172°
2026-05-04 04:09 51.49928 5.31960 30370 ft 437 kts 172°
2026-05-04 04:09 51.47053 5.33217 30989 ft 433 kts 172°
2026-05-04 04:10 51.44159 5.34479 31486 ft 432 kts 171°
2026-05-04 04:10 51.41294 5.35726 31915 ft 432 kts 171°
2026-05-04 04:10 51.38406 5.36982 32310 ft 432 kts 171°
2026-05-04 04:10 51.35521 5.38240 32691 ft 432 kts 171°
2026-05-04 04:11 51.32674 5.39479 33040 ft 433 kts 171°
2026-05-04 04:11 51.29792 5.40733 33381 ft 433 kts 170°
2026-05-04 04:11 51.26900 5.41981 33709 ft 433 kts 171°
2026-05-04 04:11 51.23982 5.43032 34034 ft 432 kts 173°
2026-05-04 04:12 51.21035 5.44008 34326 ft 433 kts 173°
2026-05-04 04:12 51.18117 5.44999 34665 ft 433 kts 171°
2026-05-04 04:12 51.15223 5.46207 35012 ft 433 kts 169°
2026-05-04 04:12 51.12320 5.47486 35371 ft 432 kts 169°
2026-05-04 04:13 51.09490 5.48727 35723 ft 429 kts 169°
2026-05-04 04:13 51.06641 5.49974 36113 ft 425 kts 169°
2026-05-04 04:13 51.03823 5.51205 36455 ft 423 kts 169°
2026-05-04 04:13 51.00996 5.52438 36814 ft 421 kts 169°
2026-05-04 04:14 50.98250 5.53633 37167 ft 420 kts 169°
2026-05-04 04:14 50.95448 5.54850 37520 ft 419 kts 169°
2026-05-04 04:14 50.92681 5.56051 37849 ft 417 kts 169°
2026-05-04 04:14 50.89925 5.57245 38100 ft 417 kts 169°
2026-05-04 04:15 50.87334 5.58367 38390 ft 415 kts 169°
2026-05-04 04:15 50.84759 5.59480 38607 ft 415 kts 169°
2026-05-04 04:15 50.79113 5.61914 38944 ft 418 kts 169°
2026-05-04 04:16 50.73552 5.64303 38947 ft 425 kts 168°
2026-05-04 04:16 50.68326 5.66547 38945 ft 428 kts 169°
2026-05-04 04:17 50.62603 5.69179 38970 ft 428 kts 168°
2026-05-04 04:17 50.57018 5.71948 38956 ft 430 kts 163°
2026-05-04 04:18 50.51459 5.75433 38959 ft 430 kts 163°
2026-05-04 04:18 50.45884 5.78917 38965 ft 430 kts 163°
2026-05-04 04:19 50.40366 5.82350 38955 ft 430 kts 163°
2026-05-04 04:19 50.34768 5.85821 38969 ft 431 kts 163°
2026-05-04 04:20 50.29178 5.89277 38971 ft 432 kts 163°
2026-05-04 04:20 50.23595 5.92718 38963 ft 431 kts 163°
2026-05-04 04:21 50.17979 5.96170 38971 ft 430 kts 163°
2026-05-04 04:21 50.12449 5.99558 38977 ft 430 kts 163°
2026-05-04 04:22 50.06850 6.02980 38973 ft 430 kts 163°
2026-05-04 04:22 50.01268 6.06381 38974 ft 431 kts 163°
2026-05-04 04:23 49.95692 6.09770 38976 ft 434 kts 163°
2026-05-04 04:23 49.90158 6.13126 38979 ft 434 kts 163°
2026-05-04 04:24 49.79253 6.19713 38977 ft 434 kts 163°
2026-05-04 04:25 49.73634 6.23095 38981 ft 434 kts 163°
2026-05-04 04:25 49.67973 6.26493 38979 ft 435 kts 163°
2026-05-04 04:26 49.62344 6.29864 38985 ft 435 kts 163°
2026-05-04 04:26 49.56828 6.33159 38981 ft 435 kts 163°
2026-05-04 04:27 49.51133 6.36553 38982 ft 435 kts 163°
2026-05-04 04:27 49.45536 6.39949 38983 ft 437 kts 160°
2026-05-04 04:28 49.39986 6.43739 38982 ft 437 kts 160°
2026-05-04 04:28 49.34447 6.47514 38982 ft 437 kts 160°
2026-05-04 04:29 49.29011 6.51209 38983 ft 437 kts 160°
2026-05-04 04:29 49.23576 6.54892 38977 ft 437 kts 160°
2026-05-04 04:30 49.18123 6.58578 38980 ft 438 kts 160°
2026-05-04 04:30 49.12762 6.62192 38978 ft 438 kts 160°
2026-05-04 04:31 49.07406 6.65794 38985 ft 439 kts 161°
2026-05-04 04:31 49.01823 6.69432 38994 ft 436 kts 165°
2026-05-04 04:32 48.96048 6.71331 38995 ft 428 kts 179°
2026-05-04 04:32 48.90185 6.71300 38997 ft 426 kts 185°
2026-05-04 04:33 48.84336 6.71074 38997 ft 426 kts 185°
2026-05-04 04:33 48.78451 6.70847 38996 ft 427 kts 185°
2026-05-04 04:34 48.72845 6.70630 39003 ft 426 kts 185°
2026-05-04 04:34 48.66994 6.70404 39006 ft 426 kts 185°
2026-05-04 04:35 48.61074 6.70176 39003 ft 427 kts 185°
2026-05-04 04:35 48.55177 6.69948 39006 ft 427 kts 185°
2026-05-04 04:36 48.49376 6.69725 39006 ft 427 kts 185°
2026-05-04 04:36 48.43441 6.69497 39008 ft 427 kts 185°
2026-05-04 04:37 48.31540 6.69040 39016 ft 428 kts 185°
2026-05-04 04:38 48.25613 6.68812 39012 ft 429 kts 185°
2026-05-04 04:38 48.19630 6.68584 39015 ft 429 kts 185°
2026-05-04 04:39 48.13673 6.68357 39015 ft 429 kts 185°
2026-05-04 04:39 48.07703 6.68130 39018 ft 429 kts 185°
2026-05-04 04:40 48.01767 6.67905 39020 ft 429 kts 185°
2026-05-04 04:40 47.95847 6.67682 39021 ft 429 kts 185°
2026-05-04 04:41 47.89925 6.67458 39013 ft 429 kts 185°
2026-05-04 04:41 47.84036 6.67237 39013 ft 429 kts 185°
2026-05-04 04:42 47.78072 6.67013 39013 ft 429 kts 184°
2026-05-04 04:42 47.72104 6.66789 39011 ft 430 kts 185°
2026-05-04 04:43 47.66142 6.66566 39009 ft 430 kts 184°
2026-05-04 04:43 47.60196 6.66344 39011 ft 430 kts 184°
2026-05-04 04:44 47.54245 6.66122 39010 ft 430 kts 185°
2026-05-04 04:44 47.48269 6.65900 39012 ft 430 kts 185°
2026-05-04 04:45 47.42408 6.64734 39010 ft 425 kts 198°
2026-05-04 04:47 47.25619 6.47927 39003 ft 421 kts 221°
2026-05-04 04:47 47.21155 6.42350 39004 ft 422 kts 221°
2026-05-04 04:48 47.16700 6.36795 39002 ft 422 kts 221°
2026-05-04 04:49 47.07479 6.26491 39003 ft 423 kts 208°
2026-05-04 04:49 47.04789 6.24781 39001 ft 424 kts 201°
2026-05-04 04:49 46.99047 6.22939 39002 ft 428 kts 188°
2026-05-04 04:50 46.93137 6.22157 39005 ft 428 kts 188°
2026-05-04 04:50 46.87241 6.21377 39012 ft 429 kts 188°
2026-05-04 04:51 46.81314 6.20593 39011 ft 430 kts 188°
2026-05-04 04:51 46.75375 6.19809 39010 ft 430 kts 188°
2026-05-04 04:52 46.69487 6.19032 39007 ft 430 kts 188°
2026-05-04 04:52 46.63557 6.18250 39013 ft 429 kts 188°
2026-05-04 04:53 46.57661 6.17474 39015 ft 429 kts 188°
2026-05-04 04:53 46.51718 6.16694 39013 ft 430 kts 188°
2026-05-04 04:54 46.45825 6.15921 39017 ft 430 kts 188°
2026-05-04 04:54 46.39955 6.15153 39010 ft 430 kts 188°
2026-05-04 04:55 46.34059 6.14383 39025 ft 430 kts 188°
2026-05-04 04:55 46.28210 6.13620 39022 ft 430 kts 188°
2026-05-04 04:56 46.22322 6.12607 39028 ft 428 kts 192°
2026-05-04 04:56 46.16541 6.11308 39027 ft 428 kts 191°
2026-05-04 04:57 46.10749 6.10015 39178 ft 424 kts 191°
2026-05-04 04:57 46.07862 6.09373 39354 ft 420 kts 191°
2026-05-04 04:57 46.05045 6.08746 39520 ft 418 kts 192°
2026-05-04 04:58 46.02179 6.08110 39708 ft 417 kts 192°
2026-05-04 04:58 45.99393 6.07492 39878 ft 417 kts 192°
2026-05-04 04:58 45.96501 6.06851 40011 ft 418 kts 192°
2026-05-04 04:58 45.93617 6.06213 40116 ft 419 kts 192°
2026-05-04 04:59 45.87957 6.04963 40285 ft 421 kts 192°
2026-05-04 04:59 45.85055 6.04323 40399 ft 421 kts 192°
2026-05-04 04:59 45.82132 6.03676 40512 ft 422 kts 192°
2026-05-04 05:00 45.79239 6.03036 40620 ft 422 kts 192°
2026-05-04 05:00 45.76317 6.02390 40733 ft 422 kts 192°
2026-05-04 05:00 45.70524 6.01112 40930 ft 422 kts 192°
2026-05-04 05:01 45.67691 6.00488 41013 ft 423 kts 192°
2026-05-04 05:01 45.61908 5.99215 41016 ft 428 kts 192°
2026-05-04 05:02 45.56110 5.97942 41022 ft 432 kts 192°
2026-05-04 05:02 45.50263 5.96662 41028 ft 434 kts 192°
2026-05-04 05:03 45.44390 5.95097 41043 ft 434 kts 195°
2026-05-04 05:04 45.32757 5.91446 41056 ft 433 kts 195°
2026-05-04 05:04 45.26908 5.89621 41047 ft 433 kts 195°
2026-05-04 05:06 45.03403 5.82331 41060 ft 431 kts 195°
2026-05-04 05:07 44.97525 5.80519 41074 ft 431 kts 195°
2026-05-04 05:07 44.91673 5.78718 41074 ft 432 kts 195°
2026-05-04 05:09 44.66922 5.71145 41065 ft 432 kts 195°
2026-05-04 05:10 44.60857 5.69300 41047 ft 432 kts 195°
2026-05-04 05:10 44.54948 5.67506 41041 ft 432 kts 195°
2026-05-04 05:11 44.49220 5.65771 41053 ft 432 kts 195°
2026-05-04 05:11 44.43464 5.64030 41053 ft 433 kts 195°
2026-05-04 05:12 44.37636 5.62152 41049 ft 431 kts 201°
2026-05-04 05:12 44.32192 5.59233 41042 ft 430 kts 204°
2026-05-04 05:13 44.26808 5.56275 41047 ft 430 kts 205°
2026-05-04 05:13 44.21357 5.53287 41042 ft 430 kts 204°
2026-05-04 05:14 44.16003 5.50360 41045 ft 430 kts 205°
2026-05-04 05:14 44.10488 5.47354 41041 ft 430 kts 205°
2026-05-04 05:15 44.04986 5.44361 41040 ft 429 kts 205°
2026-05-04 05:15 43.99478 5.41371 41042 ft 429 kts 205°
2026-05-04 05:16 43.93951 5.38376 41032 ft 429 kts 205°
2026-05-04 05:16 43.88620 5.35490 41041 ft 430 kts 205°
2026-05-04 05:17 43.83100 5.32510 41031 ft 430 kts 204°
2026-05-04 05:17 43.77693 5.29596 41029 ft 430 kts 204°
2026-05-04 05:18 43.72156 5.26618 41037 ft 430 kts 204°
2026-05-04 05:18 43.66606 5.23639 41022 ft 430 kts 204°
2026-05-04 05:19 43.61064 5.20670 41027 ft 430 kts 204°
2026-05-04 05:19 43.55471 5.17680 41028 ft 430 kts 204°
2026-05-04 05:20 43.49898 5.14707 41023 ft 429 kts 204°
2026-05-04 05:20 43.44351 5.11754 41020 ft 429 kts 204°
2026-05-04 05:21 43.38850 5.08668 41016 ft 426 kts 211°
2026-05-04 05:21 43.33913 5.04248 41016 ft 423 kts 217°
2026-05-04 05:22 43.29025 4.99645 41004 ft 423 kts 217°
2026-05-04 05:22 43.24235 4.95144 40993 ft 422 kts 217°
2026-05-04 05:23 43.19365 4.90575 40988 ft 422 kts 217°
2026-05-04 05:23 43.14505 4.86024 40987 ft 422 kts 217°
2026-05-04 05:24 43.09653 4.81487 40987 ft 422 kts 217°
2026-05-04 05:24 43.04714 4.76975 40988 ft 424 kts 213°
2026-05-04 05:25 42.99531 4.73038 40982 ft 425 kts 212°
2026-05-04 05:25 42.94326 4.69107 40979 ft 424 kts 212°
2026-05-04 05:26 42.89147 4.65199 40997 ft 423 kts 212°
2026-05-04 05:26 42.83975 4.61301 40975 ft 423 kts 212°
2026-05-04 05:28 42.63300 4.45777 40978 ft 421 kts 213°
2026-05-04 05:29 42.58147 4.41925 40968 ft 421 kts 213°
2026-05-04 05:29 42.52986 4.38072 40963 ft 420 kts 213°
2026-05-04 05:31 42.32397 4.22775 40958 ft 419 kts 213°
2026-05-04 05:32 42.27259 4.18976 40965 ft 419 kts 213°
2026-05-04 05:33 42.19537 4.13278 40943 ft 418 kts 213°
2026-05-04 05:33 42.14413 4.09506 40948 ft 418 kts 213°
2026-05-04 05:34 42.09292 4.05744 40947 ft 418 kts 213°
2026-05-04 05:34 42.04194 4.02006 40952 ft 417 kts 213°
2026-05-04 05:35 41.99056 3.98244 40951 ft 417 kts 213°
2026-05-04 05:35 41.93935 3.94503 40955 ft 417 kts 213°
2026-05-04 05:36 41.88766 3.90925 40965 ft 417 kts 211°
2026-05-04 05:36 41.83553 3.87419 40956 ft 417 kts 211°
2026-05-04 05:37 41.78338 3.83918 40955 ft 416 kts 211°
2026-05-04 05:37 41.73128 3.80425 40957 ft 415 kts 211°
2026-05-04 05:38 41.65541 3.75351 40957 ft 414 kts 212°
2026-05-04 05:38 41.60356 3.71890 40957 ft 413 kts 212°
2026-05-04 05:39 41.52583 3.66713 40960 ft 412 kts 212°
2026-05-04 05:40 41.44877 3.61595 40959 ft 411 kts 212°
2026-05-04 05:40 41.39737 3.58189 40965 ft 411 kts 212°
2026-05-04 05:41 41.34589 3.54784 40966 ft 409 kts 212°
2026-05-04 05:41 41.29480 3.51409 40956 ft 409 kts 212°
2026-05-04 05:42 41.24345 3.48025 40966 ft 409 kts 212°
2026-05-04 05:42 41.19188 3.44742 40961 ft 411 kts 207°
2026-05-04 05:43 41.13560 3.42836 40964 ft 418 kts 198°
2026-05-04 05:45 40.90597 3.36796 40969 ft 418 kts 199°
2026-05-04 05:47 40.67624 3.30786 40957 ft 419 kts 198°
2026-05-04 05:47 40.61896 3.29294 40957 ft 418 kts 198°
2026-05-04 05:48 40.56155 3.27800 40961 ft 418 kts 198°
2026-05-04 05:48 40.50415 3.26310 40958 ft 418 kts 198°
2026-05-04 05:49 40.44681 3.24823 40965 ft 419 kts 198°
2026-05-04 05:49 40.38924 3.23333 40965 ft 420 kts 198°
2026-05-04 05:51 40.15863 3.17385 40933 ft 420 kts 198°
2026-05-04 05:52 40.12946 3.16633 40516 ft 425 kts 198°
2026-05-04 05:52 40.10047 3.15890 39967 ft 420 kts 198°
2026-05-04 05:52 40.07186 3.15159 39415 ft 415 kts 198°
2026-05-04 05:52 40.04377 3.14441 38872 ft 409 kts 198°
2026-05-04 05:53 40.01651 3.13745 38356 ft 405 kts 198°
2026-05-04 05:54 39.83940 3.05036 34766 ft 392 kts 215°
2026-05-04 05:55 39.81534 3.03284 34242 ft 393 kts 215°
2026-05-04 05:55 39.79124 3.01531 33718 ft 393 kts 215°
2026-05-04 05:55 39.76734 2.99793 33195 ft 394 kts 215°
2026-05-04 05:55 39.74320 2.98040 32670 ft 395 kts 215°
2026-05-04 05:56 39.71899 2.96283 32147 ft 396 kts 214°
2026-05-04 05:56 39.69472 2.94524 31621 ft 398 kts 215°
2026-05-04 05:56 39.67026 2.92751 31094 ft 399 kts 215°
2026-05-04 05:56 39.64578 2.90980 30554 ft 400 kts 215°
2026-05-04 05:57 39.62121 2.89204 30021 ft 401 kts 214°
2026-05-04 05:57 39.59670 2.87433 29485 ft 402 kts 214°
2026-05-04 05:57 39.57198 2.85648 28945 ft 403 kts 214°
2026-05-04 05:57 39.54737 2.83875 28405 ft 400 kts 214°
2026-05-04 05:58 39.52313 2.82130 27874 ft 398 kts 214°
2026-05-04 05:58 39.49845 2.80355 27329 ft 395 kts 214°
2026-05-04 05:58 39.47436 2.78623 26810 ft 393 kts 214°
2026-05-04 05:58 39.45038 2.76895 26274 ft 390 kts 215°
2026-05-04 05:59 39.42892 2.74766 25756 ft 378 kts 229°
2026-05-04 05:59 39.41221 2.72187 25236 ft 374 kts 234°
2026-05-04 05:59 39.39568 2.69539 24745 ft 372 kts 233°
2026-05-04 05:59 39.37953 2.66965 24262 ft 371 kts 233°
2026-05-04 06:00 39.36296 2.64328 23761 ft 369 kts 233°
2026-05-04 06:00 39.34651 2.61713 23270 ft 366 kts 233°
2026-05-04 06:00 39.33020 2.59124 22777 ft 364 kts 233°
2026-05-04 06:00 39.31398 2.56551 22279 ft 361 kts 233°
2026-05-04 06:01 39.29816 2.54044 21810 ft 357 kts 233°
2026-05-04 06:01 39.28243 2.51554 21329 ft 353 kts 234°
2026-05-04 06:03 39.17723 2.34961 18163 ft 321 kts 233°
2026-05-04 06:03 39.16271 2.32680 17726 ft 317 kts 233°
2026-05-04 06:05 39.06762 2.17770 14871 ft 288 kts 232°
2026-05-04 06:05 39.04223 2.13801 14107 ft 280 kts 232°
2026-05-04 06:05 39.02972 2.11847 13734 ft 276 kts 232°
2026-05-04 06:06 39.01739 2.09922 13396 ft 271 kts 232°
2026-05-04 06:06 39.00529 2.08036 13035 ft 269 kts 232°
2026-05-04 06:06 38.99323 2.06155 12672 ft 265 kts 232°
2026-05-04 06:06 38.98150 2.04327 12318 ft 262 kts 231°
2026-05-04 06:07 38.97022 2.02571 11978 ft 259 kts 231°
2026-05-04 06:07 38.95863 2.00766 11627 ft 256 kts 231°
2026-05-04 06:07 38.94732 1.99008 11279 ft 253 kts 231°
2026-05-04 06:07 38.93646 1.97200 10929 ft 250 kts 239°
2026-05-04 06:08 38.93055 1.95079 10453 ft 254 kts 261°
2026-05-04 06:08 38.93193 1.92762 10016 ft 259 kts 284°
2026-05-04 06:08 38.94082 1.90685 9440 ft 272 kts 308°
2026-05-04 06:08 38.95635 1.89220 8936 ft 279 kts 327°
2026-05-04 06:09 38.97354 1.87986 8586 ft 270 kts 327°
2026-05-04 06:09 38.98935 1.86878 8276 ft 259 kts 329°
2026-05-04 06:11 39.03003 1.75602 6180 ft 223 kts 242°
2026-05-04 06:11 39.02274 1.73788 5893 ft 225 kts 241°
2026-05-04 06:13 38.97327 1.61704 3921 ft 214 kts 242°
2026-05-04 06:14 38.93359 1.52041 2291 ft 184 kts 242°
2026-05-04 06:14 38.92798 1.50678 2071 ft 160 kts 242°
2026-05-04 06:15 38.92272 1.49401 1886 ft 158 kts 242°
2026-05-04 06:15 38.91751 1.48140 1648 ft 154 kts 242°
2026-05-04 06:15 38.91280 1.46994 1483 ft 134 kts 242°
2026-05-04 06:15 38.90852 1.45938 1269 ft 127 kts 242°
2026-05-04 06:16 38.90445 1.44941 1067 ft 123 kts 242°
2026-05-04 06:16 38.90045 1.43951 882 ft 126 kts 242°
2026-05-04 06:16 38.89606 1.42934 800 ft 128 kts 240°
2026-05-04 06:16 38.89171 1.41921 649 ft 126 kts 241°
2026-05-04 06:17 38.88763 1.40930 491 ft 126 kts 243°
2026-05-04 06:17 38.88351 1.39915 287 ft 126 kts 243°
2026-05-04 06:17 38.87942 1.38910 100 ft 124 kts 243°
2026-05-04 06:17 38.87548 1.37953 28 ft 109 kts 243°
2026-05-04 06:18 38.87278 1.37289 28 ft 44 kts 253°
2026-05-04 06:18 38.87260 1.37039 28 ft 27 kts 272°
2026-05-04 06:18 38.87294 1.36910 28 ft 11 kts 10°
2026-05-04 06:20 38.87655 1.37552 28 ft 7 kts 97°
2026-05-04 06:20 38.87671 1.37654 28 ft 14 kts 62°
2026-05-04 06:21 38.87726 1.37718 28 ft 0 kts 331°
2026-05-04 06:22 38.87726 1.37719 28 ft 0 kts 331°
2026-05-04 06:28 38.87727 1.37718 28 ft 0 kts 331°
2026-05-04 06:28 38.87737 1.37718 28 ft 3 kts 14°
2026-05-04 06:29 38.87752 1.37719 28 ft 1 kts 333°
2026-05-04 06:29 38.87757 1.37704 28 ft 1 kts 253°
2026-05-04 06:29 38.87747 1.37695 28 ft 1 kts 180°
2026-05-04 06:29 38.87735 1.37707 28 ft 4 kts 135°
2026-05-04 06:30 38.87723 1.37720 28 ft 1 kts 151°
2026-05-04 06:30 38.87722 1.37721 28 ft 0 kts 153°